Probability
0 0 0 1 2 2 1 0 0 0 0 0 0 0 0 0 1 1 2 9 18 18 16 17 14 9 6 6 7 9 10 9 6 4 3 3 2 1 0 1 2 2 3 3 3 3 2 1 1
0 0 0 0 1 1 0 0 0 0 0 0 0 0 0 0 0 1 2 8 16 19 18 18 15 11 10 10 11 11 10 8 6 4 3 2 1 0 0 0 1 1 2 3 3 2 2 2 3
0 0 0 0 0 0 0 0 0 0 0 0 0 0 0 0 0 1 2 8 16 22 22 20 16 14 14 14 13 12 10 8 5 3 2 1 0 0 0 0 0 0 1 2 2 2 2 3 4
0 0 0 0 0 0 0 0 0 0 0 0 0 1 2 1 1 2 3 9 19 25 23 19 16 16 17 16 13 11 10 8 6 4 3 1 0 0 0 0 0 0 0 1 2 3 3 2 2
0 0 0 0 0 0 0 0 0 0 0 0 2 5 4 3 3 3 4 11 21 24 20 18 17 16 16 15 12 9 7 7 5 3 3 2 1 1 1 0 0 0 1 2 3 3 2 1 0
0 0 0 0 0 0 0 0 0 0 0 0 3 8 9 5 4 4 4 10 18 21 18 16 16 15 14 14 12 8 5 4 2 1 1 2 2 2 2 1 1 1 1 2 2 2 1 1 1
0 0 0 0 0 0 0 0 0 0 0 0 3 9 13 10 5 3 4 7 14 18 17 14 13 13 12 13 12 9 6 3 2 1 0 1 2 2 2 2 3 3 2 3 3 3 3 4 4
0 0 0 0 0 0 0 0 0 0 0 1 3 10 16 13 6 4 4 6 10 14 14 12 11 10 10 11 12 10 7 5 3 2 1 1 1 1 1 2 3 3 2 3 5 6 7 8 8
0 0 0 0 0 0 0 0 0 0 2 4 7 13 17 13 7 4 4 7 10 13 12 9 9 9 8 10 10 9 6 5 4 3 3 2 2 1 2 4 4 3 3 5 8 10 12 11 10
0 0 0 0 0 0 0 0 0 1 4 7 11 16 17 13 8 5 5 9 14 16 13 10 9 10 9 10 10 8 6 5 4 4 3 3 3 2 3 6 7 5 4 5 8 10 12 10 8
0 0 0 0 0 0 0 1 1 2 4 8 12 15 17 15 12 8 8 13 19 22 20 14 12 12 13 13 12 10 8 6 5 4 4 3 3 3 4 8 9 6 3 2 4 6 6 5 4
0 0 0 0 0 0 1 2 2 2 4 8 12 16 19 18 15 12 11 15 23 28 26 21 18 18 18 18 15 12 10 8 6 6 5 4 3 4 5 8 10 7 4 2 2 3 2 1 2
0 0 0 0 0 0 1 1 2 3 6 8 11 15 18 18 16 14 14 18 25 29 29 28 27 24 24 22 17 12 10 10 8 8 7 5 5 6 7 9 10 8 6 5 5 6 4 2 2
0 0 0 0 0 0 1 1 2 5 9 9 10 13 15 16 16 17 19 23 28 31 33 34 33 31 29 25 19 13 12 10 8 9 9 7 7 8 9 11 11 10 8 9 9 8 7 5 3
0 0 0 0 1 1 2 3 4 7 10 10 10 12 13 14 15 18 23 27 32 37 40 39 36 35 33 28 20 14 12 10 9 10 11 9 8 8 9 10 12 12 11 12 12 9 7 6 5
0 0 0 1 2 2 3 4 6 7 8 9 9 10 12 13 13 17 24 30 37 43 46 43 38 37 37 31 23 17 14 12 12 13 13 10 8 8 9 10 12 13 13 13 11 9 7 6 6
0 0 1 2 2 2 2 3 6 6 7 8 10 12 14 14 14 17 23 32 42 49 51 47 42 41 39 34 27 21 18 16 15 14 14 12 10 9 10 12 13 14 14 13 10 8 7 7 7
0 0 1 1 1 1 1 4 7 7 8 11 15 18 19 18 18 20 24 32 43 51 53 50 47 46 43 37 31 26 23 20 16 14 15 14 12 11 11 12 14 15 15 14 11 8 7 8 8
0 0 0 0 0 0 1 4 8 9 11 14 18 22 22 22 24 24 26 32 43 51 54 53 52 51 47 41 36 31 26 21 17 16 16 15 13 12 12 11 13 15 16 15 13 11 9 8 8
0 0 0 0 0 0 1 3 7 9 12 15 20 23 24 26 28 29 30 33 40 49 53 54 54 53 49 45 42 36 30 25 21 19 19 16 12 12 12 11 11 14 15 16 16 15 13 10 8
1 0 0 0 0 0 1 3 6 10 12 17 22 24 26 29 31 32 32 34 38 44 49 51 52 51 48 46 43 39 34 29 24 23 21 16 12 11 11 11 11 12 14 15 16 15 13 11 10
1 0 0 0 1 1 1 2 6 11 16 20 23 25 29 32 32 32 32 34 38 41 43 45 46 46 46 45 43 40 36 30 27 26 24 18 13 12 12 12 11 12 13 14 13 12 11 10 10
1 0 0 0 1 2 1 1 5 12 20 24 23 24 28 32 31 30 29 33 38 41 41 42 44 44 43 44 44 41 37 33 31 30 27 21 16 14 13 13 13 14 13 11 9 9 9 9 9
0 0 0 0 0 1 1 2 6 13 21 25 24 24 26 28 28 27 26 30 37 41 41 42 44 45 43 42 41 39 39 39 37 35 30 24 18 15 13 13 15 16 13 10 8 8 8 8 7
0 0 0 0 0 0 2 4 8 15 20 22 23 24 24 24 26 25 24 26 33 38 40 41 43 43 41 41 39 38 40 41 40 36 31 24 18 15 15 15 17 17 14 11 9 8 6 6 6
0 0 0 0 0 0 2 6 11 17 20 20 22 24 24 23 24 24 23 23 27 32 35 38 40 39 38 38 39 40 41 41 40 37 30 23 17 16 18 21 21 18 14 12 11 8 5 4 4
0 0 0 0 0 0 1 7 15 21 22 21 20 22 23 21 20 20 21 21 23 25 29 34 36 36 35 37 39 40 39 39 40 37 29 22 18 19 21 22 22 18 14 12 11 9 6 5 4
0 0 0 0 0 0 1 6 16 23 24 20 18 19 20 18 15 15 17 20 22 24 26 28 31 33 34 37 39 40 38 37 37 36 29 23 21 22 23 23 21 18 16 14 12 10 9 8 7
0 0 0 0 0 0 1 5 15 22 22 18 17 17 16 13 11 12 14 17 21 25 27 28 30 32 34 37 39 39 37 34 33 32 28 26 25 25 25 24 21 18 16 16 13 12 10 9 9
0 0 0 0 0 0 1 6 14 20 19 16 17 17 13 9 10 13 13 15 20 25 29 30 31 34 35 38 38 38 35 32 30 29 27 27 27 26 26 25 22 17 16 16 14 12 10 10 10
Wind_Speed
8 10 10 8 5 5 2 3 8 10 12 11 11 11 15 15 11 10 10 15 18 17 15 14 12 11 10 10 10 9 9 9 9 9 9 9 8 8 8 8 8 9 9 9 9 8 8 7 7
9 12 10 7 5 3 1 4 9 10 10 8 9 11 14 15 13 12 12 13 17 17 14 13 12 11 10 10 10 9 9 10 9 9 9 8 8 7 7 7 8 8 8 8 8 8 7 7 7
12 15 9 6 6 2 1 6 8 8 7 6 9 12 12 11 13 11 12 14 16 16 15 14 13 12 12 12 11 10 10 10 9 9 8 8 7 7 7 7 7 8 8 7 7 7 7 6 6
9 9 7 7 6 2 2 5 7 7 6 7 9 10 12 11 12 13 13 14 16 17 16 14 13 13 13 12 11 10 10 9 9 8 8 7 7 7 7 7 7 7 7 7 7 7 6 6 5
11 8 9 7 7 2 4 6 6 6 5 7 10 12 12 12 14 15 12 14 16 16 16 15 14 13 12 11 11 10 9 9 8 8 8 7 6 6 6 6 7 7 7 7 6 6 5 4 4
8 7 8 7 5 2 4 5 3 6 6 6 10 12 11 12 13 12 12 13 15 16 15 14 14 14 12 11 11 10 9 8 8 7 7 6 6 6 6 6 6 7 6 6 6 5 4 4 3
10 9 11 9 5 2 3 4 3 6 5 4 8 11 10 12 11 11 11 13 14 15 14 13 12 12 12 11 11 10 9 8 7 6 6 5 5 5 5 5 6 6 6 6 5 4 3 3 2
10 9 12 8 6 3 1 4 3 3 4 4 6 8 11 13 12 11 11 12 13 13 12 12 12 11 10 10 10 10 9 7 7 6 5 5 4 4 5 6 6 6 6 5 5 4 3 3 3
13 9 9 9 7 2 1 3 3 3 4 6 8 10 14 16 14 11 10 10 11 11 11 10 10 10 10 10 10 9 9 7 6 5 5 4 3 4 4 5 8 7 6 5 5 5 4 4 5
10 9 11 9 6 4 1 1 2 3 4 6 9 13 17 15 13 12 11 11 11 11 10 9 10 8 8 7 7 5 6 6 5 4 4 3 1 1 4 7 8 7 6 6 6 6 5 5 2
12 12 11 10 6 6 5 2 1 1 2 4 8 11 14 14 12 11 10 9 10 10 9 8 9 7 7 5 5 3 2 4 4 3 2 1 1 1 2 3 4 4 6 4 4 5 3 2 1
13 11 11 10 6 6 6 4 1 0 3 5 7 11 11 11 10 10 10 9 9 9 9 8 9 7 6 5 4 3 3 2 3 3 2 1 0 1 2 1 2 1 2 2 1 1 1 1 1
13 11 10 9 7 7 6 5 4 2 4 6 8 10 11 10 8 7 9 10 9 9 9 8 8 6 5 4 2 3 3 2 3 3 2 1 1 1 1 1 1 0 1 1 1 1 1 1 2
13 11 10 9 8 8 7 7 7 5 5 7 8 8 8 9 8 7 7 9 8 8 8 8 8 7 6 4 2 2 3 2 2 2 2 1 1 1 2 1 1 1 0 1 1 1 0 0 1
12 11 11 11 10 10 9 10 9 8 8 8 9 8 8 7 9 7 7 8 9 8 8 8 8 8 6 5 3 3 2 3 2 2 2 1 1 1 1 1 0 1 1 1 1 1 0 0 1
13 13 14 13 12 12 11 11 9 10 10 9 8 8 9 7 9 8 9 8 9 8 8 7 8 9 6 4 3 3 2 3 2 3 2 2 1 1 1 1 0 0 1 0 1 0 1 1 1
15 15 15 14 13 12 12 10 9 11 10 8 8 7 8 8 8 8 9 9 9 9 8 6 6 8 7 5 3 3 3 2 2 3 3 2 2 2 1 1 1 0 0 1 0 1 1 0 1
13 14 13 12 10 12 12 10 9 9 10 10 8 7 7 7 7 8 9 9 10 10 8 7 6 6 6 4 3 2 3 3 2 3 3 3 2 2 1 1 1 1 1 1 1 1 1 1 1
16 15 13 11 11 11 10 9 8 8 9 8 7 7 8 8 8 7 8 9 10 10 9 7 6 5 5 4 3 3 3 2 2 3 4 3 2 2 1 1 1 1 1 0 1 1 0 1 1
17 16 16 12 9 8 8 9 9 9 9 8 8 7 7 7 8 8 8 8 9 9 8 8 7 6 5 4 3 3 3 2 3 3 4 3 2 2 1 2 1 0 1 1 1 1 0 1 0
15 15 15 14 9 9 11 12 11 9 9 8 8 8 8 9 9 9 8 8 9 8 8 7 7 6 5 5 3 3 3 2 3 3 3 2 2 2 1 2 0 0 0 0 1 0 1 1 1
14 13 15 15 13 10 12 11 12 9 9 8 8 8 8 9 9 8 9 9 10 10 8 7 6 6 5 4 4 4 3 3 3 2 2 2 2 2 1 1 1 0 1 0 1 0 1 1 2
15 14 14 15 15 14 14 13 11 9 9 7 6 7 7 8 9 9 8 9 9 9 9 7 6 6 5 4 4 3 3 2 2 3 3 3 2 2 2 2 1 1 1 1 1 1 1 1 2
13 14 14 14 13 15 16 14 10 7 9 7 6 5 6 7 8 9 8 8 8 8 8 8 7 6 5 5 4 3 3 3 3 3 3 3 2 2 2 2 1 1 0 0 0 0 1 2 2
12 12 10 12 12 14 13 12 6 4 5 6 7 6 5 6 8 9 9 9 9 8 8 8 8 6 6 5 4 3 3 3 3 2 2 2 2 2 2 2 2 1 1 1 0 0 1 2 2
12 13 11 12 12 11 11 11 5 4 5 6 6 6 4 4 6 8 8 9 9 9 8 8 8 7 6 6 5 4 3 3 2 2 2 2 1 2 2 2 2 2 2 1 1 1 1 1 2
14 13 13 14 16 14 9 5 2 2 4 6 6 6 5 4 5 6 7 8 8 8 8 8 8 7 6 6 5 5 4 3 2 2 2 1 1 2 2 2 2 2 1 1 1 1 1 1 1
14 12 10 12 12 14 11 8 5 4 3 4 6 6 4 5 5 5 5 6 8 8 8 8 8 7 6 5 5 5 4 3 2 2 2 1 1 1 2 2 2 2 1 2 2 1 1 1 1
12 13 11 10 11 12 12 4 1 3 3 2 3 4 4 3 5 5 5 5 6 8 9 8 8 7 6 5 5 4 4 3 3 2 2 2 1 2 2 2 2 2 2 2 2 2 2 2 2
11 11 10 9 10 11 11 3 1 2 3 1 2 3 4 2 3 5 5 4 4 6 8 8 8 7 7 6 5 5 4 4 3 3 2 2 2 2 2 2 2 3 3 2 3 3 2 2 2
Wind_Direction
222 233 230 242 246 252 306 48 68 65 67 63 52 60 62 56 58 85 98 102 108 112 116 112 107 108 107 105 101 98 96 92 86 82 83 83 81 83 87 89 94 97 98 102 101 95 95 101 104
245 243 238 247 259 276 44 69 65 67 70 80 75 71 74 70 80 100 106 110 113 117 119 113 113 111 113 111 105 102 99 95 90 86 86 84 82 83 86 90 96 98 101 103 103 102 97 98 102
258 258 262 251 248 263 49 73 81 84 89 84 81 71 66 80 87 102 116 122 116 116 113 115 115 110 113 113 109 105 102 98 93 89 88 86 83 84 85 91 99 99 102 104 103 102 99 99 102
255 242 235 260 262 199 103 79 84 82 87 86 84 82 75 71 95 110 125 122 117 114 115 119 118 113 112 113 111 108 104 101 94 89 88 86 84 84 85 91 98 99 101 102 99 103 102 107 117
243 259 260 258 270 241 103 81 86 97 83 82 92 94 89 89 103 119 126 120 117 115 118 123 123 120 120 119 115 109 106 102 96 91 89 85 83 83 86 95 104 106 107 108 107 111 108 114 129
260 263 273 270 267 252 97 94 92 86 81 93 109 108 103 112 118 125 127 123 118 119 120 126 129 129 129 127 121 116 111 107 102 97 94 92 90 90 93 98 110 112 115 113 111 113 117 123 141
261 276 274 271 278 327 70 89 79 83 80 79 102 106 118 124 126 132 131 124 121 123 128 135 136 135 132 130 129 126 121 118 115 112 110 110 108 108 111 116 118 122 122 121 122 121 130 143 180
264 276 282 277 275 283 104 104 92 88 101 105 97 112 135 133 139 140 135 128 125 126 130 138 141 140 145 140 139 135 133 133 134 136 137 139 139 140 142 141 136 137 137 136 139 150 164 187 218
256 262 271 268 269 274 112 123 115 98 89 75 79 104 131 137 144 146 141 134 129 129 134 138 138 145 149 142 141 148 149 151 151 152 162 172 179 165 160 132 142 152 156 157 165 175 191 214 226
248 255 260 271 288 307 307 148 140 130 135 111 100 110 130 141 148 154 152 147 140 138 140 142 140 146 141 136 140 158 158 156 173 158 167 190 189 153 129 133 149 163 172 179 191 200 210 225 227
242 248 261 275 293 304 305 281 174 182 131 121 129 137 144 150 155 158 155 145 137 138 138 136 137 136 127 125 141 147 147 148 164 150 152 158 164 134 118 135 152 171 182 195 186 199 221 214 224
245 246 261 271 289 282 281 290 272 102 119 124 150 149 148 155 162 164 155 144 140 140 136 134 132 132 126 126 137 140 141 145 141 136 142 130 122 113 104 103 135 175 180 167 174 183 194 252 250
253 248 250 261 263 266 274 277 275 205 153 150 154 156 157 162 164 163 148 145 145 143 139 137 130 123 114 115 137 133 127 137 126 122 115 85 86 57 79 62 73 256 127 130 163 118 48 7 4
261 259 257 257 251 249 245 247 244 218 175 171 166 163 163 163 164 162 150 143 145 142 138 135 129 121 120 123 127 115 126 114 110 102 107 84 62 63 70 53 18 339 42 118 122 119 110 41 26
263 264 256 250 249 247 241 243 237 209 194 193 176 170 165 162 159 166 157 143 144 137 130 130 133 128 130 136 149 130 125 126 120 116 110 97 67 73 93 83 356 347 349 67 69 80 114 163 72
256 253 254 246 236 236 235 244 228 209 200 191 182 175 167 170 168 167 154 144 141 138 132 138 145 139 136 139 145 125 122 120 115 113 107 92 67 71 90 115 65 1 357 55 89 48 61 32 47
250 243 244 249 232 225 226 238 230 216 194 185 183 177 173 169 169 162 156 147 142 135 134 138 135 139 145 144 140 130 115 106 95 92 93 91 70 57 27 74 61 317 8 56 131 89 81 54 68
249 249 246 247 243 228 230 228 227 205 194 188 180 175 174 171 166 159 153 148 140 136 136 140 132 132 139 137 137 128 119 115 105 96 96 97 86 78 26 67 50 353 16 32 40 60 37 8 12
266 272 267 250 240 240 236 233 218 219 206 191 178 179 176 169 156 148 146 144 137 137 141 145 144 138 142 149 159 150 137 133 122 112 108 106 92 78 74 57 70 0 5 20 62 86 82 279 250
259 267 273 265 243 248 250 243 227 220 216 194 184 182 173 166 157 147 147 146 142 140 144 149 149 151 156 149 152 151 146 144 129 121 121 118 108 97 114 74 39 337 343 1 19 29 348 288 266
255 257 263 267 260 253 254 246 239 213 224 197 188 189 179 170 158 156 156 152 145 145 149 154 154 155 163 152 150 149 142 142 128 123 122 126 124 117 79 106 125 330 142 77 282 282 296 292 293
264 261 267 272 267 253 248 253 236 212 209 196 193 189 180 167 157 161 162 158 154 153 153 147 145 147 151 152 162 164 157 152 134 133 128 139 132 126 115 94 87 45 355 32 283 349 286 280 279
268 274 269 269 267 267 250 250 245 209 202 190 194 182 169 162 161 162 163 161 156 152 153 152 149 153 155 160 159 165 150 148 134 135 142 154 152 156 160 142 121 79 22 40 357 5 341 318 299
269 275 271 264 259 255 251 252 252 218 200 184 191 185 165 161 158 159 159 149 148 147 149 149 146 149 155 158 152 154 154 152 147 151 150 162 156 160 159 147 135 137 289 338 300 13 340 320 320
255 258 258 250 243 249 244 244 244 213 196 179 185 175 157 155 151 155 158 155 151 149 147 146 146 149 156 163 161 168 163 159 155 164 163 168 160 155 160 162 153 173 211 227 237 50 298 296 301
253 250 254 263 265 263 249 240 212 187 166 168 164 146 145 150 148 160 160 157 151 149 147 147 151 156 165 169 167 168 163 174 169 164 162 175 158 149 150 153 163 181 197 219 209 217 246 277 294
254 254 261 270 274 274 271 268 209 138 138 143 145 148 160 161 152 151 150 152 149 150 150 150 152 163 172 174 169 166 168 188 174 168 164 155 148 154 137 154 161 179 187 193 197 245 251 248 261
250 254 256 262 271 272 264 249 235 190 162 168 159 157 159 149 146 139 140 142 150 154 154 153 157 165 170 167 168 167 174 186 169 174 166 168 164 145 160 173 176 190 203 203 210 235 242 237 257
251 250 253 262 264 269 270 263 200 157 148 161 159 144 126 157 153 144 141 143 151 157 156 156 158 162 162 162 164 166 175 183 180 177 175 183 177 173 189 184 186 197 209 216 220 235 246 244 253
260 255 251 256 265 272 276 263 116 126 117 109 120 133 127 149 148 146 140 141 152 161 157 155 162 167 167 169 172 169 168 171 179 183 188 192 196 197 204 200 204 216 210 210 225 239 243 254 256